Location: Nasgenstadt
(48.2786°N, 9.7553°E)
Time: 11:02:57
(UTC+01:00)

ISS - Pass Details

Date: 10 February 2018
Orbit: 403 x 407 km, 51.6° (Epoch: 20 February)

Event Time Altitude Azimuth Distance (km) Brightness Sun altitude
Rises 18:39:59 0° 291° (WNW) 2,322 1.2 -11.3°
Reaches altitude 10° 18:42:05 10° 287° (WNW) 1,460 0.1 -11.7°
Maximum altitude 18:45:16 51° 210° (SSW) 516 -3.1 -12.2°
Enters shadow 18:48:17 11° 134° (SE) 1,389 -1.5 -12.7°
